Location: Praha
(50.0830°N, 14.4670°E)
Time: 18:56:09
(UTC+02:00)

ISS - Pass Details

Date: 16 July 2021
Orbit: 419 x 421 km, 51.6° (Epoch: 02 August)

Event Time Altitude Azimuth Distance (km) Brightness Sun altitude
Rises 23:45:16 0° 266° (W) 2,368 0.3 -16.4°
Reaches altitude 10° 23:47:23 10° 268° (W) 1,504 -0.7 -16.5°
Maximum altitude 23:50:45 69° 353° (N) 455 -3.5 -16.7°
Drops below altitude 10° 23:54:07 10° 77° (ENE) 1,505 -1.0 -16.8°
Sets 23:56:14 0° 80° (E) 2,369 0.0 -16.9°
